Location: Misciano
(43.5000°N, 11.9500°E)
Time: 16:28:07
(UTC+00:00)

MOS 1-B Rocket - Pass Details

Date: 13 August 2020
Orbit: 890 x 1606 km, 99.1° (Epoch: 18 September)

Event Time Altitude Azimuth Distance (km) Brightness Sun altitude
Rises 22:20:44 0° 9° (N) 3,542 7.9 -30.8°
Reaches altitude 10° 22:23:12 10° 5° (N) 2,574 7.0 -30.9°
Maximum altitude 22:28:37 52° 290° (WNW) 1,103 4.3 -31.2°
Enters shadow 22:28:46 52° 284° (WNW) 1,106 4.3 -31.2°
